Wind_Speed
9 11 9 8 9 9 8 10 12 13 12 10 12 16 18 15 16 18 18 19 20 22 22 23 24 24 24 25 26 26 27 28 29 29 30 30 30 30 31 31 31 32 32 33
9 8 7 9 11 10 11 10 12 13 13 11 14 17 19 17 18 19 18 19 20 21 20 21 23 23 24 25 26 27 28 28 29 30 31 31 31 31 31 31 32 32 32 32
6 6 10 13 13 13 13 15 14 14 13 11 13 18 20 19 18 18 18 19 19 20 21 22 23 23 23 24 26 27 28 28 29 30 31 31 32 33 33 32 32 33 33 34
5 7 10 11 11 12 12 13 13 12 10 11 14 18 21 19 17 16 17 17 18 20 21 21 22 23 23 24 25 26 26 27 28 29 30 31 32 33 33 33 33 33 34 33
5 8 9 10 10 12 14 12 11 11 13 14 15 17 19 19 17 15 15 16 17 19 20 20 21 22 23 24 24 24 25 25 26 28 29 29 30 31 32 31 32 32 32 33
8 9 10 10 11 12 11 9 9 12 15 17 16 16 21 20 16 15 14 15 17 18 19 19 20 22 23 23 24 23 24 25 26 27 27 28 29 30 30 30 31 32 32 33
7 8 9 10 10 10 10 9 10 12 14 16 15 17 21 18 16 18 16 17 17 18 19 20 20 21 21 22 22 22 23 24 24 26 26 26 27 27 28 28 29 30 31 32
8 10 9 8 9 9 10 10 11 13 12 12 13 15 16 15 16 17 17 18 18 18 19 20 20 20 20 21 21 21 21 22 23 24 25 26 26 26 26 27 27 28 28 29
10 10 10 9 9 11 9 10 12 12 11 12 12 13 16 16 15 17 18 18 18 19 19 19 20 21 21 21 22 21 22 22 22 22 22 22 23 24 25 25 25 25 26 26
12 10 9 10 9 9 10 11 10 11 11 12 11 13 17 15 15 15 16 18 18 19 20 20 20 21 22 22 21 21 22 21 21 21 21 21 22 22 22 23 24 25 25 26
15 14 12 11 11 11 12 12 12 12 12 13 15 19 18 16 16 16 18 18 20 20 21 21 22 22 23 22 22 22 22 21 21 21 21 22 22 22 22 23 23 23 24 23
15 15 14 13 13 14 14 14 14 15 15 16 17 21 22 21 18 16 18 20 22 22 23 23 24 24 24 23 23 22 22 22 22 22 22 23 23 23 23 23 23 23 23 22
14 14 15 15 16 16 16 15 15 16 16 17 18 22 22 21 20 18 19 21 23 24 24 25 25 25 25 24 24 23 23 23 23 23 23 24 24 23 23 23 23 23 23 22
15 15 15 15 15 15 14 14 14 15 16 17 18 22 23 22 21 21 21 22 24 25 26 26 26 26 26 25 25 25 25 24 24 25 24 24 24 24 23 23 23 23 23 23
14 15 16 16 15 16 15 14 15 16 17 18 21 24 26 25 24 25 25 25 25 26 26 26 26 26 26 26 26 26 26 26 26 26 25 25 24 24 24 24 23 23 23 24
13 14 15 15 14 15 15 16 17 18 18 21 23 24 26 27 27 27 28 28 26 27 27 27 26 27 27 27 26 26 26 26 26 26 25 25 24 24 24 24 24 23 23 23
12 13 14 13 14 15 16 16 18 19 20 22 22 24 27 28 28 28 28 27 26 27 26 26 26 26 27 26 27 27 27 26 26 25 24 24 23 23 23 23 23 23 23 23
11 12 12 13 14 16 15 16 18 19 21 22 21 23 24 26 26 26 26 25 26 26 26 26 26 26 26 26 26 26 26 25 24 23 22 21 21 21 21 21 21 21 22 21
10 11 12 12 13 15 15 18 18 19 20 20 22 23 23 24 25 25 25 26 27 27 26 26 26 26 26 25 25 24 24 23 22 21 20 20 19 19 19 18 18 18 17 17
9 10 11 11 13 15 16 17 16 18 21 21 22 23 23 23 24 24 25 26 25 25 24 24 24 24 24 24 23 23 22 20 20 19 18 18 17 17 16 16 15 15 14 14
10 10 11 11 13 15 16 16 16 17 19 20 21 21 22 23 23 24 24 24 24 23 23 22 22 22 22 21 21 20 19 18 17 16 16 15 14 13 13 12 12 11 11 10
10 10 11 12 13 15 15 15 16 17 18 19 20 20 20 21 22 22 22 23 23 23 21 20 20 20 19 19 18 17 16 15 14 13 12 12 11 10 10 9 8 7 8 9
10 10 10 11 12 13 14 14 14 15 16 17 18 18 19 20 21 21 22 22 22 21 19 19 19 18 17 16 15 14 13 12 11 10 10 9 9 8 8 7 6 6 7 7
9 9 10 10 10 11 11 12 13 13 14 14 15 17 18 19 20 21 20 20 19 18 17 16 16 15 14 13 12 11 11 9 8 7 7 6 5 5 5 5 5 5 5 5
6 7 8 9 9 9 9 10 11 12 13 13 14 16 17 18 19 19 18 18 17 16 14 14 13 12 11 10 9 8 7 6 5 4 3 3 3 3 3 3 3 3 3 3
4 6 6 7 7 7 8 9 10 11 11 12 14 15 16 18 18 17 16 15 14 14 13 12 11 10 8 7 7 6 5 3 2 1 1 1 2 2 2 2 2 2 3 2
Wind_Direction
164 157 159 178 186 180 190 211 208 209 232 222 222 238 249 261 266 270 271 271 272 274 276 278 280 280 280 280 279 276 275 273 271 270 269 269 269 269 269 269 269 267 268 268
162 162 176 189 199 183 182 196 206 213 230 219 221 237 252 258 262 269 272 273 273 275 277 277 280 280 280 280 278 276 275 273 271 270 270 270 269 270 269 269 269 269 269 268
168 182 200 197 193 183 186 195 207 218 227 224 226 236 250 251 252 261 270 275 278 278 279 279 281 280 280 281 280 279 276 273 271 270 269 270 270 269 269 269 269 269 268 268
190 200 198 189 191 188 198 206 205 219 227 232 236 243 252 256 256 265 275 277 279 280 281 282 281 280 281 283 283 281 278 275 273 271 271 271 270 270 270 270 270 270 268 268
190 203 192 188 195 198 198 204 210 222 229 235 243 249 259 263 264 272 274 279 282 284 285 284 283 282 283 284 285 283 278 276 275 273 273 273 272 270 271 270 270 270 269 267
182 199 194 198 200 206 194 201 219 224 231 238 243 247 262 267 270 282 280 287 286 286 288 289 288 288 286 286 286 284 281 278 277 275 274 274 274 273 271 271 270 270 269 269
189 206 206 205 203 205 198 203 230 243 244 245 240 240 255 268 283 289 293 295 292 292 292 294 294 292 291 290 289 286 284 280 278 276 275 275 275 275 274 273 272 271 271 269
209 218 215 217 210 213 212 221 246 259 262 261 250 238 248 271 280 287 292 293 294 293 295 296 295 293 292 293 292 290 287 284 282 279 278 278 277 276 276 275 274 273 272 271
207 222 216 223 224 216 217 233 251 260 266 260 253 237 241 258 269 280 287 291 293 294 297 298 297 296 295 295 293 291 292 289 287 285 282 280 280 278 277 277 275 274 273 273
207 217 215 224 229 230 234 243 244 254 279 283 271 258 255 263 268 279 288 293 294 295 298 300 301 299 298 297 296 293 293 292 290 288 284 283 283 280 278 279 277 276 276 275
217 217 214 220 227 232 238 244 243 248 258 275 285 286 282 281 284 292 295 295 297 297 299 300 300 301 300 298 296 294 294 293 292 290 287 284 283 281 282 282 281 278 277 277
218 217 219 221 226 232 237 239 242 247 253 263 277 287 290 292 288 291 298 297 297 297 298 298 299 300 299 298 297 296 294 292 291 291 289 287 284 282 283 283 283 280 278 277
224 220 222 223 228 230 236 236 242 249 257 263 273 281 287 292 289 295 298 297 297 297 297 297 299 299 298 297 296 295 293 292 291 290 288 287 285 283 282 282 283 281 278 277
232 227 229 234 238 242 247 243 248 256 261 263 269 276 283 290 292 291 294 296 295 295 296 297 298 298 297 295 295 294 292 292 291 290 288 287 285 283 281 280 281 280 279 278
237 235 237 243 241 248 259 254 251 254 259 265 267 274 280 287 291 293 296 298 296 297 298 298 297 296 295 295 295 294 293 291 290 289 288 286 285 283 282 280 280 279 278 276
242 241 242 246 248 249 250 252 252 254 260 264 269 274 279 287 291 294 295 298 298 298 298 298 296 295 295 294 294 294 294 293 291 289 287 286 285 283 282 280 277 276 274 274
248 246 245 245 249 251 251 255 253 258 260 263 269 275 280 284 286 290 294 295 299 300 299 298 297 295 295 294 294 295 294 294 291 289 287 286 283 282 281 279 277 275 274 274
255 254 250 247 249 252 250 253 255 257 263 271 273 278 282 286 289 292 296 298 300 300 299 298 298 297 297 296 296 295 295 293 291 288 287 285 283 282 281 279 278 276 275 273
259 258 256 251 251 256 252 255 259 263 270 275 279 281 286 288 291 293 297 299 300 299 299 299 298 298 297 297 297 296 296 293 291 288 286 284 283 282 282 280 278 277 275 271
263 261 260 257 256 260 264 268 271 276 279 283 287 289 292 294 296 298 302 303 302 303 302 300 300 299 298 298 297 296 295 292 291 288 284 284 282 280 279 278 275 273 270 268
270 268 263 261 260 263 270 277 281 281 285 289 292 293 296 299 301 303 305 306 307 307 306 303 302 302 302 300 298 296 295 292 290 286 282 282 278 275 274 273 270 266 263 262
268 268 264 259 263 267 275 280 282 285 288 291 296 299 303 305 306 307 308 309 310 310 309 309 308 307 305 302 299 297 296 295 290 286 283 279 274 269 267 265 263 257 256 256
266 263 260 265 269 273 280 282 288 291 293 297 302 306 309 310 310 309 310 311 312 314 314 313 312 311 308 304 301 299 299 298 292 287 283 277 269 262 259 257 260 259 257 253
275 268 264 267 273 280 285 291 296 299 301 305 309 311 314 315 315 314 316 317 318 321 320 320 319 317 314 312 308 305 304 303 296 284 278 275 260 246 248 249 257 257 252 244
278 272 274 275 281 287 300 305 309 310 312 315 315 319 321 321 321 323 324 324 325 326 326 326 327 325 322 319 314 310 309 305 296 280 268 257 239 231 231 227 230 229 215 201
309 290 289 292 294 298 309 316 320 320 319 321 324 325 327 329 330 330 331 332 332 334 336 338 339 338 337 334 330 327 322 314 302 267 243 226 214 197 176 179 178 165 157 164
Height
5799 5802 5805 5808 5810 5813 5817 5820 5822 5824 5824 5826 5826 5825 5824 5824 5825 5825 5824 5824 5824 5824 5825 5825 5824 5824 5823 5823 5823 5823 5823 5824 5825 5826 5827 5827 5828 5829 5829 5830 5830 5831 5832 5832
5800 5802 5805 5808 5810 5812 5817 5820 5821 5821 5823 5825 5825 5824 5823 5823 5824 5822 5822 5821 5821 5821 5821 5821 5820 5820 5820 5819 5819 5818 5818 5818 5818 5819 5820 5820 5821 5822 5822 5823 5823 5823 5825 5825
5800 5803 5805 5807 5810 5812 5816 5818 5819 5820 5821 5822 5823 5823 5821 5821 5820 5819 5819 5818 5817 5817 5817 5817 5817 5816 5815 5814 5813 5813 5812 5812 5812 5813 5813 5814 5814 5814 5815 5815 5816 5817 5817 5818
5799 5802 5804 5806 5809 5811 5814 5815 5817 5818 5819 5820 5821 5820 5817 5815 5815 5815 5815 5815 5814 5814 5813 5813 5812 5811 5810 5810 5808 5807 5806 5806 5806 5806 5807 5807 5807 5807 5808 5808 5809 5809 5810 5811
5801 5802 5804 5806 5809 5810 5812 5814 5815 5817 5818 5819 5818 5816 5813 5812 5811 5811 5812 5812 5811 5811 5810 5809 5808 5807 5806 5805 5803 5802 5801 5801 5800 5800 5800 5800 5800 5800 5801 5801 5802 5802 5802 5803
5800 5802 5803 5805 5807 5808 5810 5812 5814 5814 5815 5815 5814 5813 5810 5808 5807 5807 5808 5809 5808 5808 5807 5806 5804 5803 5802 5800 5799 5797 5796 5795 5795 5794 5794 5794 5794 5793 5793 5794 5794 5795 5795 5795
5800 5802 5802 5804 5806 5807 5809 5811 5812 5811 5810 5810 5810 5809 5807 5806 5806 5805 5805 5805 5804 5805 5804 5802 5800 5799 5797 5795 5794 5792 5791 5790 5789 5788 5788 5788 5787 5787 5787 5787 5787 5787 5788 5788
5799 5801 5802 5803 5805 5806 5808 5809 5809 5808 5807 5805 5805 5805 5802 5803 5804 5803 5803 5803 5802 5801 5800 5798 5796 5794 5793 5791 5789 5788 5786 5785 5784 5783 5782 5782 5781 5781 5781 5781 5781 5781 5781 5781
5796 5798 5799 5802 5803 5805 5806 5807 5807 5806 5805 5804 5802 5801 5799 5798 5800 5801 5800 5800 5799 5798 5796 5794 5792 5790 5789 5787 5785 5783 5782 5780 5779 5778 5777 5776 5776 5775 5775 5774 5774 5774 5774 5774
5794 5796 5798 5800 5802 5804 5804 5804 5805 5804 5803 5801 5800 5798 5796 5795 5795 5797 5797 5797 5796 5794 5793 5791 5788 5786 5784 5782 5780 5778 5777 5775 5774 5773 5772 5771 5770 5770 5769 5769 5768 5768 5768 5768
5793 5795 5797 5798 5800 5801 5803 5803 5802 5803 5802 5801 5799 5797 5792 5792 5792 5793 5793 5792 5791 5790 5788 5786 5784 5782 5779 5777 5775 5774 5772 5770 5769 5768 5767 5766 5765 5764 5764 5763 5763 5762 5762 5762
5790 5792 5793 5795 5797 5798 5799 5800 5800 5801 5800 5799 5797 5797 5792 5790 5789 5788 5788 5788 5786 5785 5783 5782 5779 5777 5775 5772 5770 5768 5767 5765 5764 5762 5761 5760 5759 5759 5758 5758 5757 5756 5756 5756
5787 5790 5791 5792 5794 5794 5794 5795 5796 5797 5797 5796 5795 5794 5789 5787 5785 5783 5783 5783 5782 5780 5778 5776 5774 5772 5769 5767 5765 5763 5761 5760 5758 5757 5756 5754 5754 5753 5752 5752 5751 5751 5751 5750
5784 5786 5788 5789 5788 5789 5791 5792 5793 5793 5794 5793 5792 5789 5786 5784 5783 5780 5779 5778 5777 5775 5773 5771 5768 5766 5763 5761 5759 5757 5755 5753 5752 5750 5749 5748 5747 5746 5746 5746 5745 5745 5745 5744
5781 5783 5784 5785 5785 5786 5788 5789 5790 5790 5790 5790 5788 5785 5782 5781 5779 5777 5775 5773 5771 5769 5767 5765 5762 5759 5757 5755 5753 5750 5748 5747 5745 5744 5742 5741 5740 5740 5739 5739 5739 5738 5738 5738
5778 5780 5781 5782 5783 5784 5785 5786 5786 5786 5786 5785 5783 5781 5779 5777 5775 5773 5771 5768 5766 5763 5761 5758 5756 5753 5750 5748 5746 5744 5742 5740 5738 5737 5735 5734 5733 5733 5732 5732 5732 5732 5731 5731
5775 5776 5777 5778 5779 5780 5781 5781 5781 5780 5779 5779 5778 5778 5775 5772 5770 5768 5766 5763 5759 5757 5754 5752 5749 5746 5743 5741 5739 5737 5735 5733 5731 5730 5728 5727 5726 5726 5725 5725 5725 5725 5725 5725
5773 5773 5774 5775 5776 5777 5779 5777 5777 5776 5774 5774 5772 5771 5769 5767 5765 5763 5760 5757 5754 5751 5748 5745 5742 5739 5737 5734 5732 5730 5728 5726 5724 5723 5722 5721 5720 5720 5719 5719 5719 5719 5718 5719
5770 5770 5771 5772 5772 5772 5772 5771 5771 5770 5769 5769 5768 5766 5763 5761 5759 5756 5754 5750 5747 5744 5741 5738 5735 5733 5730 5728 5725 5723 5721 5719 5718 5717 5715 5715 5714 5714 5713 5713 5713 5713 5713 5714
5767 5767 5768 5768 5768 5768 5768 5768 5767 5768 5765 5764 5763 5761 5758 5756 5754 5751 5748 5744 5741 5737 5734 5732 5729 5726 5724 5721 5719 5717 5715 5713 5712 5711 5710 5709 5709 5709 5709 5709 5709 5709 5709 5710
5764 5764 5765 5765 5765 5765 5765 5765 5765 5765 5763 5760 5758 5756 5753 5751 5748 5745 5742 5738 5735 5732 5728 5726 5723 5720 5718 5715 5713 5711 5709 5708 5707 5706 5705 5705 5704 5704 5704 5704 5705 5705 5706 5707
5761 5761 5762 5762 5762 5764 5761 5761 5762 5760 5758 5756 5754 5751 5749 5746 5743 5740 5736 5733 5729 5726 5723 5720 5718 5715 5712 5710 5708 5706 5704 5703 5702 5702 5701 5701 5701 5701 5701 5702 5702 5703 5704 5704
5758 5759 5759 5759 5761 5759 5758 5758 5757 5756 5754 5752 5750 5747 5744 5741 5738 5735 5732 5728 5725 5721 5718 5716 5713 5710 5708 5705 5704 5702 5701 5699 5699 5698 5698 5698 5698 5699 5700 5700 5701 5701 5702 5703
5755 5755 5756 5756 5755 5756 5755 5755 5754 5752 5751 5749 5746 5744 5741 5738 5734 5731 5727 5724 5720 5717 5715 5712 5709 5707 5704 5702 5700 5699 5698 5697 5696 5696 5696 5696 5697 5697 5698 5699 5700 5700 5701 5701
5754 5754 5754 5754 5753 5754 5753 5752 5751 5749 5748 5746 5743 5741 5738 5735 5731 5727 5724 5720 5717 5714 5711 5709 5706 5704 5702 5700 5699 5698 5697 5696 5695 5695 5695 5696 5696 5697 5698 5698 5699 5700 5701 5701
5752 5753 5752 5753 5752 5752 5751 5750 5748 5747 5745 5743 5741 5739 5735 5732 5728 5725 5721 5718 5715 5712 5710 5707 5705 5703 5701 5699 5698 5697 5696 5696 5695 5695 5695 5696 5696 5697 5698 5699 5699 5700 5701 5702